Temp
60 60 60 61 61 61 61 61 61 61 60 61 61 61 61 61 61 54 48 56 59 65 62 54 55 54 52 48 48 45 36 33 34 36 36 41 40 42 44 40 43 46 44 49 52
60 60 60 60 61 61 61 61 61 61 61 61 61 61 61 61 53 49 60 65 64 64 54 51 50 51 44 44 43 39 33 35 36 35 35 37 37 38 38 38 40 43 48 50 50
59 59 60 60 60 61 61 61 61 60 61 61 61 61 61 58 50 48 63 64 64 61 53 51 50 49 42 42 40 37 35 40 38 40 40 39 37 39 36 36 41 42 46 47 46
59 59 59 59 60 60 61 61 60 60 60 61 61 61 60 53 40 52 63 63 63 58 54 51 48 42 38 37 41 36 41 41 42 43 41 38 40 37 39 42 46 46 46 47 46
58 58 59 59 59 60 60 60 60 60 60 61 61 61 54 46 44 58 61 59 56 53 48 47 43 41 37 38 40 37 38 42 42 42 41 42 38 37 39 44 45 45 47 45 45
58 58 58 59 59 60 60 60 60 60 60 61 61 61 50 41 55 56 55 54 52 49 47 46 43 43 41 39 37 38 38 39 41 41 42 39 36 37 42 42 44 46 46 46 45
58 58 58 58 59 59 60 60 60 60 60 61 62 57 48 45 54 54 54 51 51 50 46 47 45 43 41 38 41 39 36 38 39 40 39 40 36 35 40 42 43 45 45 44 44
58 57 58 58 58 59 60 60 60 60 60 61 62 52 42 55 52 54 54 51 53 53 50 50 49 46 42 42 39 34 33 29 38 39 40 39 30 39 42 39 40 41 42 42 44
58 57 58 58 58 58 59 60 59 60 61 61 52 48 41 58 50 53 52 49 50 51 50 56 48 39 39 32 28 27 19 26 32 38 36 35 30 39 38 41 39 39 39 40 41
58 58 58 58 58 59 59 60 59 58 57 57 55 44 47 44 48 51 51 51 46 46 46 43 37 29 27 24 19 21 21 27 26 33 34 30 31 38 40 38 36 36 37 38 40
58 58 58 58 58 59 53 49 46 46 46 40 41 41 44 48 49 49 51 48 45 41 31 35 28 23 29 31 31 29 26 24 28 34 31 29 29 35 39 34 32 32 34 36 36
59 58 58 57 58 57 49 43 41 42 36 44 44 44 46 45 41 46 50 41 34 26 33 28 23 33 36 34 32 28 19 19 29 32 30 28 28 34 35 34 33 33 32 35 35
58 58 57 57 58 50 44 42 47 44 34 41 43 42 43 45 40 42 45 39 29 23 22 24 32 38 34 31 27 27 20 19 25 29 28 24 23 28 32 33 34 34 33 32 33
58 58 57 57 52 46 42 46 47 44 27 36 39 41 43 42 38 47 46 41 33 25 27 27 34 34 31 29 30 18 31 30 27 17 11 25 12 24 28 31 33 33 31 31 31
57 56 56 57 47 43 43 45 44 40 19 36 38 46 44 38 39 40 45 40 33 28 26 27 30 30 26 32 32 28 31 28 24 8 15 14 9 21 26 27 30 31 31 31 31
56 56 56 51 44 42 44 42 41 28 19 28 36 35 33 37 38 40 39 42 38 32 30 27 34 32 32 33 33 32 25 23 18 8 4 8 10 18 23 27 28 29 31 31 31
54 53 50 50 43 44 42 40 27 22 31 27 29 34 30 30 34 35 34 32 26 20 14 26 27 32 33 28 31 26 11 5 6 2 7 2 10 20 26 29 29 30 31 30 30
53 50 46 46 42 42 40 32 17 21 21 34 33 32 28 30 30 29 29 25 29 26 12 11 17 21 32 29 21 20 14 8 1 3 6 5 8 20 27 30 30 30 29 29 28
53 45 42 43 45 43 36 22 23 25 34 32 31 22 21 29 26 23 24 23 29 26 18 13 17 30 32 32 28 19 11 21 3 -2 0 5 13 25 27 21 26 26 28 27 27
47 43 40 44 45 44 33 30 27 34 36 34 27 28 17 19 25 19 23 29 29 29 26 22 14 21 27 30 27 20 24 12 7 1 -4 2 -3 14 16 20 21 23 24 25 25
46 39 40 42 42 36 31 29 32 37 37 32 29 24 30 24 22 17 23 30 29 27 29 19 14 18 27 16 15 20 10 12 10 12 2 -2 8 14 18 17 18 20 23 22 22
44 34 39 40 34 32 32 33 36 34 37 34 33 34 31 26 21 16 24 27 31 27 25 28 21 10 18 25 27 22 14 19 10 5 6 9 13 17 15 10 5 17 21 22 18
37 35 39 41 30 32 33 33 30 32 32 32 30 33 31 24 22 27 27 33 32 30 26 28 13 6 18 22 24 18 23 23 16 18 7 5 16 10 4 11 12 13 21 21 19
37 32 33 34 34 32 32 33 33 31 31 32 31 32 30 22 28 23 27 31 33 32 37 34 23 16 16 16 11 15 22 25 23 7 15 17 23 29 31 28 24 14 17 17 13
38 34 33 29 32 32 34 34 32 30 29 30 26 30 27 21 22 19 27 29 31 35 32 27 11 17 17 18 13 20 21 22 18 23 15 24 14 26 30 28 28 12 11 11 13
36 34 34 29 33 32 35 32 33 33 28 27 23 30 29 24 29 25 28 28 27 28 27 27 11 11 6 22 22 17 22 23 21 23 21 22 21 31 33 28 15 18 8 13 10
41 40 38 37 32 30 32 33 31 32 33 34 30 28 26 30 33 32 32 32 31 27 26 22 16 11 7 13 11 13 20 20 15 11 20 15 24 26 24 15 9 16 8 14 13
MSLP
1022.16 1022.03 1021.69 1021.43 1021.17 1020.79 1020.52 1020.27 1019.97 1019.78 1019.59 1019.23 1019.14 1018.74 1018.74 1018.45 1018.19 1017.96 1018.48 1018.98 1018.34 1017.66 1017.24 1016.94 1016.52 1016.42 1016.50 1017.57 1018.06 1018.40 1019.32 1019.97 1019.67 1019.94 1020.01 1020.15 1020.06 1019.83 1019.77 1019.73 1019.45 1018.98 1019.15 1019.45 1019.61
1022.37 1022.09 1021.80 1021.50 1021.17 1020.82 1020.51 1020.27 1020.00 1019.77 1019.56 1019.42 1019.07 1018.87 1018.77 1018.60 1018.58 1018.91 1019.18 1018.52 1018.04 1017.62 1017.43 1017.39 1017.23 1017.14 1017.85 1018.51 1018.89 1019.27 1019.98 1019.96 1019.97 1020.01 1020.30 1020.48 1020.60 1020.56 1020.57 1020.31 1019.91 1019.39 1019.39 1019.55 1019.79
1022.43 1022.19 1021.90 1021.58 1021.23 1020.87 1020.55 1020.29 1019.98 1019.79 1019.63 1019.38 1019.05 1018.91 1018.77 1018.69 1018.86 1019.40 1018.96 1018.47 1017.98 1017.60 1017.59 1017.60 1017.62 1017.79 1018.64 1019.09 1019.67 1019.91 1020.07 1020.07 1020.18 1020.23 1020.47 1020.57 1020.71 1020.73 1020.73 1020.38 1019.94 1019.69 1019.53 1019.59 1020.02
1022.52 1022.33 1022.07 1021.73 1021.32 1020.95 1020.59 1020.26 1020.01 1019.82 1019.63 1019.36 1019.03 1018.88 1018.67 1018.74 1019.73 1019.55 1019.10 1018.64 1018.05 1017.65 1017.56 1017.76 1017.88 1018.50 1019.43 1019.86 1019.97 1020.22 1020.33 1020.22 1020.18 1020.26 1020.60 1020.67 1020.60 1020.77 1020.77 1019.89 1019.55 1019.74 1019.75 1019.59 1019.93
1022.60 1022.39 1022.14 1021.79 1021.37 1021.00 1020.60 1020.22 1020.01 1019.78 1019.57 1019.36 1019.00 1018.86 1018.75 1019.23 1019.88 1019.49 1019.31 1018.96 1018.38 1018.15 1018.39 1018.43 1018.62 1019.14 1019.89 1020.19 1020.33 1020.35 1020.56 1020.36 1020.32 1020.50 1020.58 1020.59 1020.58 1020.71 1020.22 1019.58 1019.73 1019.61 1019.55 1019.73 1019.85
1022.71 1022.38 1022.13 1021.76 1021.31 1020.91 1020.51 1020.19 1019.98 1019.74 1019.59 1019.29 1018.98 1018.85 1018.87 1019.58 1019.76 1019.65 1019.58 1019.22 1018.95 1018.80 1018.98 1018.96 1019.38 1019.39 1019.93 1020.43 1020.57 1020.80 1020.78 1020.74 1020.67 1020.54 1020.41 1020.60 1020.61 1020.89 1019.56 1019.30 1019.46 1019.66 1019.62 1019.63 1019.75
1022.79 1022.41 1022.08 1021.73 1021.29 1020.88 1020.41 1020.08 1019.85 1019.66 1019.55 1019.35 1019.15 1019.18 1019.44 1020.14 1019.86 1019.82 1019.70 1019.49 1019.22 1018.99 1019.20 1019.43 1019.54 1019.64 1020.12 1020.79 1021.10 1021.21 1021.37 1021.16 1020.95 1020.86 1020.80 1020.75 1020.46 1020.22 1019.32 1019.41 1019.59 1019.66 1019.59 1019.61 1019.76
1022.69 1022.43 1021.98 1021.60 1021.12 1020.68 1020.28 1019.79 1019.67 1019.60 1019.48 1019.33 1019.26 1019.36 1019.88 1019.91 1019.90 1019.90 1019.75 1019.42 1019.24 1019.09 1019.22 1019.30 1019.34 1019.86 1020.55 1021.17 1021.70 1022.36 1022.39 1022.25 1021.45 1021.27 1021.22 1021.36 1020.72 1019.42 1019.34 1019.63 1019.63 1019.61 1019.57 1019.60 1019.66
1022.64 1022.38 1022.01 1021.60 1021.14 1020.53 1020.02 1019.54 1019.48 1019.43 1019.39 1019.25 1019.35 1019.60 1020.20 1019.91 1020.02 1020.08 1019.99 1019.92 1019.65 1019.41 1019.27 1019.19 1019.55 1020.96 1021.37 1022.24 1023.17 1023.91 1023.99 1023.52 1022.45 1021.94 1021.95 1022.03 1021.15 1019.61 1019.59 1019.77 1019.64 1019.53 1019.71 1019.81 1019.81
1022.48 1022.24 1022.00 1021.64 1021.21 1020.58 1019.96 1019.61 1019.50 1019.37 1019.46 1019.38 1019.73 1020.39 1020.51 1020.81 1020.63 1020.39 1020.03 1020.01 1020.15 1019.96 1019.91 1020.20 1021.04 1021.83 1022.87 1023.36 1024.39 1024.73 1024.98 1024.44 1023.99 1022.95 1022.74 1022.51 1021.16 1019.78 1019.61 1019.77 1019.74 1019.75 1019.91 1020.05 1019.80
1022.39 1022.19 1021.98 1021.75 1021.39 1020.84 1020.23 1019.98 1020.51 1020.52 1020.61 1020.99 1021.21 1021.20 1021.14 1021.11 1020.83 1020.52 1020.38 1020.44 1020.64 1021.03 1021.86 1022.11 1022.57 1022.83 1023.32 1023.54 1024.00 1024.62 1025.20 1025.30 1024.36 1023.79 1023.53 1022.67 1021.60 1019.68 1019.20 1019.53 1019.71 1019.99 1019.94 1019.98 1019.97
1022.24 1022.08 1021.94 1021.71 1021.50 1021.22 1021.16 1022.37 1023.37 1023.83 1022.56 1021.57 1021.42 1021.36 1021.34 1021.47 1021.21 1020.83 1020.63 1021.18 1021.80 1022.83 1023.10 1023.17 1023.26 1023.14 1023.28 1023.68 1024.14 1024.84 1025.57 1025.62 1024.89 1024.57 1024.35 1023.22 1021.58 1019.56 1019.32 1019.23 1019.34 1019.70 1019.90 1019.96 1020.20
1022.10 1021.88 1021.89 1021.68 1021.52 1022.07 1022.84 1023.64 1023.67 1023.79 1023.45 1022.06 1021.67 1021.61 1021.65 1021.64 1021.56 1021.42 1021.33 1022.01 1022.91 1023.79 1024.47 1024.15 1023.76 1023.34 1023.54 1024.04 1024.61 1025.12 1025.81 1025.94 1026.15 1025.62 1025.08 1024.50 1022.05 1020.40 1019.47 1019.23 1019.33 1019.59 1019.83 1020.12 1020.45
1021.98 1021.79 1021.91 1021.71 1021.97 1022.86 1023.62 1023.84 1023.77 1023.77 1023.75 1022.57 1021.94 1021.85 1021.83 1021.67 1021.81 1021.65 1021.73 1022.27 1023.30 1024.31 1024.69 1024.61 1023.91 1023.73 1023.98 1024.43 1024.95 1025.66 1025.61 1026.31 1026.86 1027.33 1027.62 1026.69 1025.17 1021.96 1020.35 1019.78 1019.67 1019.69 1019.95 1020.20 1020.35
1021.89 1022.09 1021.95 1021.60 1022.67 1023.35 1024.12 1023.79 1023.74 1024.00 1024.06 1022.95 1022.10 1021.82 1021.83 1022.15 1022.19 1022.08 1022.02 1022.08 1023.14 1024.41 1025.02 1024.58 1024.27 1024.14 1024.41 1024.47 1025.07 1025.79 1026.24 1027.03 1028.08 1029.21 1029.45 1028.75 1028.21 1022.41 1021.09 1020.24 1019.65 1019.52 1020.01 1020.19 1020.26
1022.34 1022.43 1022.40 1022.37 1023.20 1023.99 1023.93 1023.81 1023.90 1024.30 1023.84 1022.90 1022.43 1022.23 1022.41 1022.45 1022.43 1022.25 1022.36 1022.43 1023.15 1024.19 1024.96 1024.97 1024.59 1024.40 1024.39 1024.80 1025.40 1026.06 1027.08 1028.28 1029.46 1030.58 1031.38 1030.08 1028.95 1023.65 1021.72 1020.03 1019.63 1019.38 1019.73 1019.97 1019.99
1022.57 1022.78 1022.91 1023.16 1024.09 1024.06 1023.96 1023.98 1024.83 1024.47 1023.84 1023.61 1023.07 1022.95 1023.31 1023.47 1023.21 1023.25 1023.22 1023.42 1024.05 1025.00 1025.84 1025.59 1025.13 1024.75 1024.72 1025.39 1026.10 1026.99 1028.99 1030.40 1031.53 1032.34 1032.05 1030.88 1029.78 1023.91 1021.02 1019.99 1019.67 1019.63 1019.67 1019.82 1019.89
1022.82 1023.03 1023.84 1024.10 1024.24 1024.01 1024.07 1024.62 1025.42 1024.10 1023.79 1023.34 1023.37 1023.51 1023.97 1024.28 1024.39 1024.36 1024.27 1024.37 1024.60 1025.34 1027.13 1027.33 1026.07 1025.59 1025.46 1025.90 1026.84 1028.20 1029.43 1031.46 1032.97 1034.39 1032.99 1031.40 1028.96 1022.92 1020.76 1020.01 1019.59 1019.63 1019.76 1019.85 1019.78
1022.90 1023.61 1024.12 1024.34 1024.04 1024.00 1024.40 1025.27 1024.23 1023.89 1023.47 1023.54 1023.71 1024.20 1024.74 1025.01 1025.43 1025.31 1025.00 1024.95 1024.83 1025.42 1026.56 1027.51 1026.87 1026.28 1026.15 1026.36 1027.46 1029.03 1030.04 1030.85 1032.74 1034.82 1034.12 1030.90 1027.40 1023.42 1020.93 1020.49 1020.23 1020.21 1020.39 1019.99 1019.72
1023.24 1023.76 1024.55 1024.50 1024.07 1023.90 1024.84 1024.91 1024.22 1023.67 1023.42 1023.47 1023.99 1024.52 1025.70 1025.82 1026.19 1026.13 1025.41 1024.86 1025.10 1025.56 1026.05 1027.35 1027.75 1027.22 1026.97 1027.04 1028.07 1028.74 1030.00 1031.19 1032.78 1034.13 1033.79 1030.79 1029.11 1025.25 1022.56 1021.70 1020.90 1021.01 1020.58 1020.03 1019.71
1023.38 1024.30 1024.90 1024.62 1024.43 1024.36 1024.79 1024.61 1024.09 1023.71 1023.71 1023.81 1023.89 1024.52 1025.10 1025.92 1026.51 1026.73 1025.90 1025.00 1025.05 1025.84 1026.27 1027.32 1028.10 1028.00 1027.57 1027.55 1027.78 1029.23 1029.96 1031.14 1032.17 1032.67 1032.89 1031.54 1026.32 1023.05 1022.39 1022.02 1021.94 1021.40 1020.60 1020.14 1020.00
1023.87 1024.71 1025.00 1024.71 1025.04 1024.64 1024.59 1024.28 1024.25 1023.75 1023.69 1023.78 1023.96 1024.26 1024.95 1025.67 1026.55 1026.65 1025.80 1024.99 1024.88 1025.38 1026.31 1026.84 1027.88 1028.41 1027.31 1027.04 1027.15 1027.87 1028.57 1029.49 1030.67 1031.38 1031.34 1030.51 1024.23 1021.19 1021.58 1021.96 1022.01 1021.52 1020.92 1020.27 1020.12
1024.10 1024.70 1025.01 1024.91 1024.99 1024.77 1024.55 1024.43 1024.31 1024.03 1023.95 1024.09 1024.21 1024.33 1024.80 1025.57 1026.18 1025.81 1025.32 1024.73 1024.84 1025.18 1025.57 1026.42 1027.91 1028.41 1027.65 1027.66 1027.42 1027.62 1027.81 1028.15 1028.78 1029.13 1029.03 1028.68 1023.02 1020.99 1021.43 1021.49 1021.34 1021.65 1020.79 1020.44 1020.31
1024.43 1024.72 1025.09 1025.07 1024.79 1024.47 1024.46 1024.10 1024.02 1024.02 1024.12 1024.14 1024.22 1024.41 1024.95 1025.48 1025.67 1025.63 1025.17 1024.80 1024.96 1025.13 1025.29 1025.97 1027.34 1028.15 1028.03 1027.84 1027.73 1027.48 1026.85 1026.91 1027.38 1028.14 1026.55 1023.98 1021.18 1019.96 1019.60 1020.88 1020.56 1021.19 1020.89 1020.61 1020.81
1024.25 1024.13 1023.88 1024.58 1024.34 1023.94 1023.87 1023.61 1023.62 1024.15 1024.29 1024.29 1024.45 1024.39 1024.59 1025.38 1025.47 1025.30 1024.94 1024.87 1025.02 1025.07 1025.58 1026.51 1028.04 1028.40 1028.02 1027.63 1027.60 1026.51 1025.87 1025.74 1025.80 1024.77 1025.03 1020.54 1021.88 1019.27 1019.11 1019.87 1020.18 1020.34 1020.44 1020.55 1020.63
1023.84 1023.76 1023.89 1023.85 1023.88 1023.74 1023.39 1022.70 1022.74 1023.14 1023.93 1024.15 1024.40 1023.72 1024.24 1024.36 1023.59 1023.81 1024.11 1024.54 1024.58 1025.52 1026.04 1026.86 1028.12 1029.01 1028.70 1027.30 1026.88 1025.64 1024.07 1023.98 1023.91 1023.60 1022.76 1021.90 1021.16 1017.43 1018.56 1019.37 1019.90 1020.24 1020.63 1020.71 1020.43
1023.33 1023.17 1023.36 1022.82 1023.01 1023.22 1022.34 1021.96 1021.77 1022.34 1022.47 1022.34 1022.90 1023.74 1023.85 1022.90 1023.06 1023.20 1023.45 1023.84 1024.24 1024.98 1026.01 1027.07 1028.22 1029.51 1029.10 1028.21 1026.88 1024.34 1020.88 1021.24 1021.59 1021.56 1021.54 1021.56 1018.08 1017.98 1018.65 1019.32 1019.44 1019.42 1019.76 1019.90 1020.00
Wind_Speed
11 11 12 12 13 12 12 12 11 10 9 10 10 9 9 8 7 7 10 7 10 17 14 6 5 6 5 5 6 2 5 2 3 5 2 4 5 2 4 3 5 3 3 2 3
11 12 13 13 14 13 13 12 10 9 9 8 9 8 7 7 3 9 9 15 15 16 6 7 6 6 5 4 4 6 4 4 1 2 2 2 0 2 3 3 4 3 1 2 3
11 13 14 14 14 14 14 12 10 8 8 8 8 8 8 4 3 4 15 17 15 12 3 1 2 2 5 4 4 1 3 3 2 3 2 2 2 1 1 3 7 6 5 4 4
11 13 14 14 15 15 15 12 10 9 9 9 9 10 7 1 1 3 16 16 12 9 2 4 5 4 5 4 2 5 2 2 3 2 0 2 1 3 6 8 3 7 6 4 6
9 12 13 15 15 16 15 13 10 9 9 10 10 11 1 6 1 5 13 11 5 5 6 4 6 3 5 3 1 3 2 3 2 5 5 1 4 4 8 11 8 8 6 6 5
9 11 13 15 16 17 16 14 10 8 9 10 11 8 2 4 2 5 7 6 5 4 6 7 3 1 5 3 4 1 2 5 3 2 2 2 3 2 7 4 5 5 7 6 7
10 11 13 15 16 16 16 14 10 7 8 8 9 2 7 3 2 6 6 2 3 2 4 2 1 2 2 3 1 1 4 4 2 2 2 1 6 8 6 1 5 9 5 5 6
8 10 12 15 17 18 16 14 7 7 8 7 7 2 2 2 1 4 6 3 5 3 3 1 3 5 4 3 6 6 5 4 2 3 3 6 10 7 6 4 9 9 7 6 6
8 9 10 13 16 18 18 11 3 6 7 6 3 3 1 3 4 5 4 4 5 3 2 2 4 4 5 5 5 8 1 1 9 2 2 2 10 13 2 6 11 9 7 6 5
9 9 10 13 16 19 17 3 4 4 4 1 2 5 4 4 4 5 4 3 3 3 4 7 6 5 5 6 3 3 3 3 6 3 4 7 19 18 8 6 10 10 7 8 6
8 9 8 12 15 18 9 4 7 4 9 3 3 2 3 7 3 3 4 4 4 7 4 5 6 2 4 3 4 4 2 4 6 5 5 7 14 23 17 6 8 9 8 7 4
8 8 7 10 14 14 4 6 3 2 6 1 1 1 0 1 3 4 5 4 7 2 4 7 1 3 3 3 3 3 2 6 6 2 4 6 22 22 11 7 5 8 8 5 5
7 6 6 9 6 6 5 3 0 1 0 3 1 2 2 3 1 5 4 2 5 4 3 5 1 3 2 1 2 3 5 3 4 6 3 9 10 6 2 2 3 3 4 2 5
7 4 5 11 5 1 3 3 2 1 5 2 2 2 2 1 2 1 2 3 4 3 3 3 3 2 2 2 4 2 3 1 3 6 2 6 9 7 4 6 5 7 6 6 7
2 5 6 8 2 3 1 2 0 2 5 2 2 1 3 2 2 2 2 2 3 2 6 5 2 2 1 3 4 4 2 1 3 4 4 5 4 11 3 7 9 10 8 7 7
3 2 0 4 4 1 2 2 2 8 7 4 3 2 5 5 4 4 2 4 3 3 1 4 3 2 2 2 1 2 4 6 4 4 4 4 5 9 5 6 5 4 7 7 8
9 9 5 2 2 3 2 3 7 5 2 5 2 3 2 4 4 5 4 2 2 5 5 5 2 1 1 2 3 6 7 5 8 6 6 3 2 15 9 6 7 9 8 8 8
8 6 5 3 3 2 3 7 4 3 5 2 1 1 1 4 2 4 2 3 1 4 4 4 8 2 1 2 5 2 6 7 6 3 6 4 9 11 6 7 8 7 7 8 10
8 2 2 4 4 1 6 3 9 7 2 3 2 5 5 1 2 4 2 3 4 5 7 4 6 1 3 3 4 3 2 3 8 1 4 4 10 14 3 7 7 10 8 11 10
2 2 2 6 5 3 4 5 3 2 1 1 3 4 3 4 3 5 2 3 3 2 3 3 4 1 3 3 5 5 3 5 4 2 7 6 8 9 8 10 7 9 13 12 8
2 1 2 5 2 5 3 6 4 3 2 3 2 2 4 1 4 3 5 3 2 3 4 4 5 6 2 4 8 2 2 5 4 4 6 5 10 11 11 8 9 10 11 10 10
1 1 3 3 3 1 2 3 3 2 1 3 2 5 5 6 4 3 6 6 5 6 5 3 4 3 10 2 4 5 6 6 6 7 4 2 15 6 8 6 4 12 11 10 7
1 0 2 2 3 4 1 2 3 3 4 3 3 4 3 6 1 5 3 1 6 6 6 6 1 4 9 5 3 3 5 4 2 2 8 5 14 3 4 7 7 10 13 11 8
2 2 1 2 1 4 3 5 5 1 3 3 2 3 3 1 3 3 3 2 5 4 5 5 4 8 8 8 4 3 5 9 7 4 6 17 27 29 24 17 14 9 11 12 8
1 4 3 3 4 5 4 2 5 4 3 3 3 7 7 4 1 6 4 2 3 5 4 4 5 2 5 7 6 14 18 12 15 17 13 24 13 26 22 18 17 7 7 9 9
2 3 1 2 0 7 11 9 13 8 7 5 5 4 8 7 11 9 6 5 6 2 5 3 3 2 5 7 6 12 20 16 21 22 20 24 28 34 27 16 9 11 5 9 8
2 1 2 5 5 6 7 11 10 7 8 7 11 5 7 19 7 1 2 1 4 9 7 6 5 2 7 5 8 11 12 10 5 4 12 17 28 11 14 8 8 10 6 9 9
Wind_Direction
13 2 4 4 359 359 356 351 351 350 351 357 352 0 351 350 354 38 38 326 329 329 333 302 15 14 42 60 42 82 67 191 180 147 170 350 21 354 328 313 335 333 88 189 68
7 4 2 0 358 357 356 352 353 352 354 355 2 4 1 356 60 49 335 345 338 339 359 16 9 7 52 39 24 75 106 191 107 115 146 289 10 314 15 341 288 306 148 67 74
7 3 359 357 355 354 354 349 349 351 354 356 1 355 342 342 79 327 338 346 341 342 233 277 303 38 65 38 8 108 138 169 180 149 178 213 245 212 230 276 221 210 286 287 151
3 359 356 353 351 350 350 346 343 347 348 349 353 344 338 349 75 293 339 340 341 343 73 26 39 60 71 71 338 109 64 91 166 102 215 243 279 258 198 233 192 228 241 262 179
359 355 352 349 349 347 346 347 337 342 343 342 343 340 50 46 37 312 336 341 358 6 46 42 53 83 102 114 137 69 1 339 321 291 243 256 247 253 254 259 265 267 261 242 185
349 352 348 346 348 346 344 341 333 335 336 336 341 340 52 72 304 327 335 338 5 35 24 36 101 170 103 74 72 29 327 293 294 297 292 287 270 64 259 258 267 250 261 232 193
342 346 344 343 345 344 340 334 330 326 333 339 345 22 54 155 325 330 350 329 343 45 70 50 4 92 121 90 72 50 40 357 8 338 349 344 290 222 224 28 295 287 283 194 203
336 336 338 339 341 340 337 326 312 308 325 336 340 58 94 307 311 341 338 320 360 33 91 297 26 100 62 139 28 42 49 15 317 348 31 76 277 268 263 305 285 284 282 219 214
327 329 334 340 339 337 338 337 337 313 307 336 38 53 17 339 11 321 358 350 315 356 27 35 69 80 34 68 21 17 213 329 320 15 264 173 272 268 307 292 287 278 259 224 217
322 329 337 344 343 338 337 335 349 7 360 56 65 42 9 324 306 328 316 356 2 331 19 41 47 68 39 64 224 264 2 277 251 292 358 281 270 279 280 261 256 266 246 215 214
312 326 339 346 347 345 355 11 15 355 39 108 271 241 336 304 270 352 8 352 356 49 45 1 68 161 168 145 132 136 213 248 259 284 304 252 277 283 297 267 263 246 221 214 262
304 325 340 345 347 355 42 65 59 239 317 334 282 271 109 337 340 350 6 56 57 71 337 20 125 189 134 135 129 121 129 270 283 308 338 298 291 289 280 259 220 198 205 206 305
303 317 341 339 353 40 67 70 269 202 238 310 342 333 309 11 8 317 25 85 89 59 31 136 54 127 105 56 84 219 178 239 247 330 282 320 296 325 337 269 228 205 188 230 268
286 325 359 319 71 165 53 340 348 88 61 294 8 15 353 14 3 343 18 110 45 159 159 197 323 146 73 258 127 302 174 318 302 44 291 33 284 300 301 290 228 219 230 274 313
38 82 58 42 139 63 287 323 181 55 14 296 341 271 323 24 338 23 352 350 125 156 85 260 168 170 120 233 154 210 19 358 87 92 39 338 62 272 332 281 250 233 237 270 281
63 99 83 50 63 84 316 320 66 42 264 326 301 344 19 14 3 328 31 52 111 113 99 229 295 178 198 44 310 19 55 39 54 88 28 257 116 278 234 217 287 267 230 269 290
88 63 49 360 56 322 331 43 32 136 343 295 331 35 129 316 349 24 356 330 176 47 345 329 264 354 130 74 25 61 49 335 354 9 225 310 323 248 261 250 229 249 253 271 275
112 74 43 57 334 355 59 51 106 243 233 134 271 28 68 14 22 334 300 292 159 95 102 116 329 102 19 147 173 68 142 149 236 274 272 352 240 252 235 277 252 247 259 279 282
126 61 49 349 346 307 66 79 210 203 170 180 59 64 320 337 179 20 234 220 204 169 155 121 285 319 38 78 94 257 54 168 97 87 26 243 288 288 296 288 265 259 265 267 273
104 82 19 322 325 75 85 256 237 242 140 106 175 149 197 274 358 55 299 223 161 124 130 184 349 294 279 96 28 134 156 50 8 327 291 284 276 242 293 274 282 265 251 262 273
83 26 311 330 307 52 203 228 274 256 321 201 239 189 207 184 172 243 247 279 122 122 83 125 102 286 56 195 178 115 9 53 121 155 191 293 256 214 235 236 258 274 269 257 276
98 243 308 350 65 178 222 218 319 258 158 238 256 214 205 156 207 246 238 214 171 150 157 188 132 243 228 156 157 164 184 155 135 256 232 191 268 219 229 250 206 269 270 273 260
185 191 331 3 202 221 215 271 228 218 224 185 235 230 165 175 245 208 236 291 161 164 168 176 314 360 338 14 11 204 195 170 137 109 204 153 264 307 294 302 244 258 281 280 286
138 268 321 69 329 178 194 230 234 268 258 195 224 136 147 236 219 252 252 196 196 211 172 158 172 183 205 214 145 225 204 201 177 172 229 226 273 286 287 293 295 265 262 274 287
209 243 195 189 227 199 176 222 237 258 233 198 315 215 171 201 224 226 218 238 186 211 141 127 206 267 258 251 204 255 255 224 209 224 216 269 251 266 280 288 293 280 284 292 285
229 184 357 185 227 215 214 207 219 203 168 236 207 205 186 202 199 194 171 195 199 120 152 175 256 102 286 279 289 276 265 244 236 244 252 259 276 265 278 296 286 276 286 280 277
290 333 216 188 184 192 217 227 226 160 226 203 201 141 201 236 223 226 185 115 157 158 176 160 149 77 267 342 320 297 255 217 191 222 214 227 239 283 286 268 258 273 234 256 264